Weather History for Altoona, PA

Change the Weather History Date:

Thursday, February 6, 2014

  Actual Average Record
Temperature  
Mean Temperature 23 °F 28 °F  
Max Temperature 26 °F 35 °F 61 °F (2008)
Min Temperature 19 °F 20 °F -3 °F (2007)
Degree Days  
Heating Degree Days 42 37  
Month to date heating degree days 219 224  
Since 1 July heating degree days 3830 3777  
Cooling Degree Days 0 0  
Month to date cooling degree days 0 0  
Year to date cooling degree days 0 0  
Moisture  
Dew Point 11 °F    
Average Humidity 62    
Maximum Humidity 73    
Minimum Humidity 50    
Precipitation  
Precipitation 0.00 in 0.08 in 0.81 in (1955)
Month to date precipitation 0.83 0.44  
Year to date precipitation 1.67 2.61  
Sea Level Pressure  
Sea Level Pressure 30.22 in    
Wind  
Wind Speed 9 mph (West)    
Max Wind Speed 12 mph    
Max Gust Speed -    
Visibility 10 miles    
Events      
T = Trace of Precipitation, MM = Missing Value Source: NWS Daily Summary

Daily Weather History Graph

Daily Weather History Graph

Search for Another Location

Airport:

Trip Planner

Search our weather history database for the weather conditions in past years. The results will help you decide how hot, cold, wet, or windy it might be!

Date:

Astronomy

Feb. 06, 2014 Rise Set
Actual Time 7:17 AM EST 5:37 PM EST
Civil Twilight 6:48 AM EST 6:06 PM EST
Nautical Twilight 6:16 AM EST 6:38 PM EST
Astronomical Twilight 5:44 AM EST 7:10 PM EST
Moon 11:08 AM EST (2/6) 12:31 AM EST (2/6)
Length of Visible Light 11h 17m
Length of Day
10h 20m
Waxing Crescent, 49% of the Moon is Illuminated
Feb 6
Waxing Crescent
Feb 6
First Quarter
Feb 14
Full
Feb 22
Last Quarter
Mar 1
New

Hourly Weather History & Observations

Time (EST) Temp. Windchill Dew Point Humidity Pressure Visibility Wind Dir Wind Speed Gust Speed Precip Events Conditions
1:53 AM - - - N/A% 30.16 in - North - - N/A   Unknown
2:53 AM - - - N/A% 30.19 in - North - - N/A   Unknown
3:53 AM - - - N/A% 30.20 in - North - - N/A   Unknown
4:53 AM - - - N/A% 30.21 in - North - - N/A   Unknown
5:53 AM - - - N/A% 30.22 in - North - - N/A   Unknown
6:53 AM - - - N/A% 30.22 in - North - - N/A   Unknown
7:53 AM - - - N/A% 30.24 in - North - - N/A   Unknown
8:53 AM - - - N/A% 30.26 in - North - - N/A   Unknown
9:53 AM - - - N/A% 30.27 in - North - - N/A   Unknown
10:53 AM - - - N/A% 30.28 in - North - - N/A   Unknown
12:53 PM 24.1 °F 15.2 °F 10.9 °F 57% 30.24 in 10.0 mi WNW 8.1 mph - N/A   Clear
1:53 PM 25.0 °F 16.3 °F 10.0 °F 53% 30.22 in 10.0 mi WNW 8.1 mph - N/A   Clear
2:53 PM 25.0 °F 15.5 °F 12.0 °F 58% 30.21 in 10.0 mi West 9.2 mph - N/A   Clear
3:53 PM 26.1 °F 18.4 °F 10.9 °F 53% 30.20 in 10.0 mi West 6.9 mph - N/A   Clear
4:53 PM 25.0 °F 14.8 °F 10.0 °F 53% 30.21 in 10.0 mi West 10.4 mph - N/A   Clear
5:53 PM 23.0 °F 12.4 °F 9.0 °F 55% 30.21 in 10.0 mi West 10.4 mph - N/A   Clear
6:53 PM 21.0 °F 11.4 °F 10.0 °F 63% 30.21 in 10.0 mi West 8.1 mph - N/A   Scattered Clouds
7:53 PM 21.0 °F 10.6 °F 10.0 °F 63% 30.21 in 10.0 mi West 9.2 mph - N/A   Clear
8:53 PM 19.0 °F 6.8 °F 10.9 °F 71% 30.23 in 10.0 mi West 11.5 mph - N/A   Partly Cloudy
9:53 PM 19.9 °F 7.9 °F 12.0 °F 71% 30.23 in 10.0 mi WSW 11.5 mph - N/A   Partly Cloudy
10:08 PM 19.9 °F 7.9 °F 12.0 °F 71% 30.24 in 10.0 mi WSW 11.5 mph - N/A   Mostly Cloudy
10:53 PM 21.0 °F 9.9 °F 12.9 °F 71% 30.24 in 10.0 mi WSW 10.4 mph - N/A   Overcast
11:36 PM 21.9 °F 11.0 °F 14.0 °F 72% 30.23 in 10.0 mi WSW 10.4 mph - N/A   Overcast
11:53 PM 21.9 °F 11.0 °F 14.0 °F 72% 30.22 in 10.0 mi WSW 10.4 mph - N/A   Overcast